SHU313 VCBI-OOMS

Flight info

Callsign SHU313
Flight time 3h 54m
Altitude 34000
Route BASUR P570 EMURU
Aircraft A320/M-SDE3FGHIRWY/LB1

Departure

Time 2026-04-27 22:21
Airport Bandaranaike International Colombo Airport (VCBI)

Arrival

Time 2026-04-28 02:16
Airport Muscat International Airport (OOMS)
Time Latitude Longitude Altitude Speed Heading
2026-04-27 22:08 7.17748 79.88457 34 ft 0 kts 212°
2026-04-27 22:12 7.17750 79.88458 33 ft 2 kts 212°
2026-04-27 22:12 7.17766 79.88469 33 ft 3 kts 215°
2026-04-27 22:12 7.17781 79.88479 34 ft 2 kts 213°
2026-04-27 22:13 7.17798 79.88488 32 ft 3 kts 190°
2026-04-27 22:13 7.17810 79.88489 34 ft 1 kts 168°
2026-04-27 22:15 7.17810 79.88490 34 ft 1 kts 159°
2026-04-27 22:15 7.17812 79.88497 31 ft 1 kts 75°
2026-04-27 22:15 7.17819 79.88495 30 ft 0 kts 346°
2026-04-27 22:16 7.17842 79.88475 32 ft 10 kts 309°
2026-04-27 22:16 7.17851 79.88415 33 ft 8 kts 246°
2026-04-27 22:16 7.17812 79.88384 34 ft 8 kts 218°
2026-04-27 22:16 7.17736 79.88322 34 ft 18 kts 219°
2026-04-27 22:17 7.17663 79.88263 34 ft 10 kts 219°
2026-04-27 22:17 7.17619 79.88227 34 ft 7 kts 218°
2026-04-27 22:17 7.17569 79.88192 33 ft 11 kts 214°
2026-04-27 22:17 7.17493 79.88136 33 ft 15 kts 217°
2026-04-27 22:18 7.17407 79.88071 33 ft 16 kts 217°
2026-04-27 22:18 7.17308 79.87996 33 ft 19 kts 217°
2026-04-27 22:18 7.17202 79.87915 32 ft 20 kts 217°
2026-04-27 22:18 7.17093 79.87833 32 ft 20 kts 218°
2026-04-27 22:19 7.16979 79.87744 31 ft 20 kts 217°
2026-04-27 22:19 7.16872 79.87663 32 ft 16 kts 216°
2026-04-27 22:19 7.16842 79.87590 33 ft 11 kts 296°
2026-04-27 22:19 7.16879 79.87537 33 ft 8 kts 308°
2026-04-27 22:20 7.16924 79.87500 33 ft 9 kts 346°
2026-04-27 22:20 7.16979 79.87522 34 ft 11 kts 36°
2026-04-27 22:20 7.17056 79.87579 33 ft 24 kts 36°
2026-04-27 22:20 7.17393 79.87838 33 ft 99 kts 37°
2026-04-27 22:21 7.18126 79.88395 35 ft 161 kts 37°
2026-04-27 22:21 7.19082 79.89120 635 ft 166 kts 38°
2026-04-27 22:21 7.20023 79.89745 1449 ft 166 kts 16°
2026-04-27 22:21 7.21179 79.89658 1748 ft 178 kts 327°
2026-04-27 22:22 7.22208 79.88864 1939 ft 197 kts 318°
2026-04-27 22:22 7.23330 79.87941 2090 ft 219 kts 319°
2026-04-27 22:22 7.24574 79.86928 2298 ft 241 kts 320°
2026-04-27 22:22 7.25913 79.85851 2843 ft 249 kts 320°
2026-04-27 22:23 7.27165 79.84646 3522 ft 250 kts 304°
2026-04-27 22:23 7.28145 79.83174 3905 ft 254 kts 304°
2026-04-27 22:23 7.29202 79.81752 3987 ft 253 kts 307°
2026-04-27 22:23 7.30294 79.80362 4004 ft 253 kts 308°
2026-04-27 22:24 7.31393 79.78979 4000 ft 253 kts 308°
2026-04-27 22:24 7.32488 79.77595 4004 ft 253 kts 307°
2026-04-27 22:24 7.33291 79.76049 4006 ft 249 kts 278°
2026-04-27 22:24 7.33149 79.74343 4033 ft 247 kts 243°
2026-04-27 22:25 7.32095 79.73018 4624 ft 249 kts 218°
2026-04-27 22:25 7.30724 79.71927 5272 ft 253 kts 217°
2026-04-27 22:25 7.29313 79.70842 5910 ft 257 kts 216°
2026-04-27 22:25 7.27874 79.69744 6535 ft 261 kts 216°
2026-04-27 22:26 7.26410 79.68627 7123 ft 265 kts 216°
2026-04-27 22:26 7.24927 79.67493 7754 ft 269 kts 215°
2026-04-27 22:26 7.23428 79.66343 8368 ft 273 kts 216°
2026-04-27 22:26 7.21912 79.65179 9009 ft 275 kts 216°
2026-04-27 22:27 7.20384 79.64002 9637 ft 278 kts 216°
2026-04-27 22:27 7.18951 79.62685 10191 ft 283 kts 233°
2026-04-27 22:27 7.18139 79.60872 10716 ft 287 kts 261°
2026-04-27 22:27 7.18204 79.58869 11236 ft 290 kts 288°
2026-04-27 22:28 7.19036 79.57023 11774 ft 291 kts 300°
2026-04-27 22:28 7.20017 79.55185 12057 ft 307 kts 300°
2026-04-27 22:28 7.21051 79.53255 12186 ft 327 kts 300°
2026-04-27 22:28 7.22159 79.51174 12313 ft 346 kts 299°
2026-04-27 22:29 7.23322 79.48976 12443 ft 364 kts 299°
2026-04-27 22:29 7.24538 79.46664 12598 ft 380 kts 299°
2026-04-27 22:29 7.25784 79.44286 13001 ft 386 kts 299°
2026-04-27 22:29 7.27040 79.41881 13496 ft 390 kts 299°
2026-04-27 22:30 7.28313 79.39448 13932 ft 394 kts 299°
2026-04-27 22:30 7.29596 79.36994 14389 ft 397 kts 299°
2026-04-27 22:30 7.30451 79.35363 14691 ft 399 kts 299°
2026-04-27 22:30 7.31752 79.32879 15122 ft 402 kts 299°
2026-04-27 22:31 7.33061 79.30383 15567 ft 404 kts 298°
2026-04-27 22:31 7.34381 79.27867 16001 ft 407 kts 298°
2026-04-27 22:31 7.35709 79.25336 16428 ft 409 kts 298°
2026-04-27 22:31 7.37043 79.22790 16849 ft 412 kts 298°
2026-04-27 22:32 7.38388 79.20227 17249 ft 415 kts 298°
2026-04-27 22:32 7.39739 79.17648 17663 ft 417 kts 298°
2026-04-27 22:32 7.41096 79.15060 18054 ft 420 kts 298°
2026-04-27 22:32 7.42466 79.12448 18396 ft 422 kts 298°
2026-04-27 22:33 7.43840 79.09827 18729 ft 424 kts 298°
2026-04-27 22:33 7.45221 79.07197 19072 ft 426 kts 298°
2026-04-27 22:33 7.46592 79.04583 19404 ft 428 kts 298°
2026-04-27 22:33 7.47987 79.01921 19726 ft 431 kts 298°
2026-04-27 22:34 7.49391 78.99239 20067 ft 433 kts 298°
2026-04-27 22:34 7.50806 78.96534 20417 ft 435 kts 298°
2026-04-27 22:34 7.52222 78.93828 20767 ft 437 kts 298°
2026-04-27 22:34 7.53640 78.91107 21115 ft 439 kts 298°
2026-04-27 22:35 7.55061 78.88379 21466 ft 441 kts 298°
2026-04-27 22:35 7.56491 78.85633 21810 ft 443 kts 298°
2026-04-27 22:35 7.57911 78.82909 22139 ft 445 kts 298°
2026-04-27 22:35 7.59355 78.80140 22466 ft 447 kts 298°
2026-04-27 22:36 7.60803 78.77367 22798 ft 448 kts 299°
2026-04-27 22:36 7.62261 78.74576 23123 ft 450 kts 298°
2026-04-27 22:36 7.63721 78.71777 23423 ft 452 kts 298°
2026-04-27 22:36 7.65188 78.68964 23685 ft 454 kts 299°
2026-04-27 22:37 7.66664 78.66134 23895 ft 457 kts 299°
2026-04-27 22:37 7.68149 78.63286 24121 ft 460 kts 299°
2026-04-27 22:37 7.69639 78.60425 24367 ft 461 kts 299°
2026-04-27 22:37 7.71131 78.57556 24620 ft 463 kts 299°
2026-04-27 22:38 7.72628 78.54676 24859 ft 464 kts 299°
2026-04-27 22:38 7.74129 78.51787 25096 ft 466 kts 299°
2026-04-27 22:38 7.75638 78.48887 25357 ft 467 kts 299°
2026-04-27 22:38 7.77152 78.45981 25623 ft 469 kts 299°
2026-04-27 22:39 7.78671 78.43061 25883 ft 470 kts 299°
2026-04-27 22:39 7.80173 78.40168 26126 ft 472 kts 299°
2026-04-27 22:39 7.81700 78.37226 26374 ft 473 kts 299°
2026-04-27 22:39 7.83226 78.34286 26619 ft 474 kts 299°
2026-04-27 22:40 7.84764 78.31332 26860 ft 476 kts 299°
2026-04-27 22:40 7.86305 78.28376 27077 ft 477 kts 299°
2026-04-27 22:40 7.87848 78.25409 27318 ft 478 kts 299°
2026-04-27 22:40 7.89395 78.22433 27539 ft 480 kts 299°
2026-04-27 22:41 7.90949 78.19442 27754 ft 481 kts 299°
2026-04-27 22:41 7.92503 78.16448 27980 ft 482 kts 299°
2026-04-27 22:41 7.94023 78.13429 28194 ft 484 kts 297°
2026-04-27 22:41 7.95460 78.10347 28408 ft 486 kts 296°
2026-04-27 22:42 7.96830 78.07226 28620 ft 487 kts 295°
2026-04-27 22:42 7.98166 78.04079 28821 ft 489 kts 294°
2026-04-27 22:42 7.99506 78.00915 29048 ft 490 kts 295°
2026-04-27 22:42 8.00859 77.97770 29356 ft 488 kts 295°
2026-04-27 22:43 8.02231 77.94639 29674 ft 487 kts 295°
2026-04-27 22:43 8.03613 77.91529 29996 ft 485 kts 295°
2026-04-27 22:43 8.05000 77.88432 30279 ft 484 kts 295°
2026-04-27 22:43 8.06386 77.85341 30508 ft 484 kts 295°
2026-04-27 22:44 8.07771 77.82245 30742 ft 483 kts 295°
2026-04-27 22:44 8.09148 77.79151 30976 ft 483 kts 295°
2026-04-27 22:44 8.10517 77.76055 31180 ft 484 kts 294°
2026-04-27 22:44 8.11889 77.72951 31436 ft 483 kts 294°
2026-04-27 22:45 8.13258 77.69863 31705 ft 482 kts 294°
2026-04-27 22:45 8.14634 77.66767 31946 ft 482 kts 294°
2026-04-27 22:45 8.16001 77.63684 32199 ft 482 kts 294°
2026-04-27 22:45 8.17371 77.60585 32438 ft 482 kts 294°
2026-04-27 22:46 8.18737 77.57496 32677 ft 482 kts 294°
2026-04-27 22:46 8.20100 77.54411 32945 ft 481 kts 294°
2026-04-27 22:46 8.21463 77.51331 33207 ft 480 kts 294°
2026-04-27 22:46 8.22811 77.48289 33446 ft 480 kts 294°
2026-04-27 22:47 8.24174 77.45213 33686 ft 479 kts 294°
2026-04-27 22:47 8.25538 77.42139 33788 ft 479 kts 294°
2026-04-27 22:47 8.26897 77.39068 33816 ft 479 kts 294°
2026-04-27 22:48 8.29607 77.32928 33817 ft 478 kts 293°
2026-04-27 22:48 8.32313 77.26800 33828 ft 478 kts 294°
2026-04-27 22:49 8.35023 77.20679 33811 ft 476 kts 294°
2026-04-27 22:49 8.37714 77.14589 33822 ft 474 kts 294°
2026-04-27 22:50 8.40396 77.08509 33822 ft 474 kts 294°
2026-04-27 22:50 8.43081 77.02421 33828 ft 474 kts 294°
2026-04-27 22:51 8.45765 76.96338 33846 ft 474 kts 294°
2026-04-27 22:51 8.48869 76.90479 33844 ft 474 kts 306°
2026-04-27 22:52 8.52725 76.85076 33803 ft 474 kts 305°
2026-04-27 22:52 8.56585 76.79658 33796 ft 476 kts 305°
2026-04-27 22:53 8.60425 76.74261 33793 ft 477 kts 305°
2026-04-27 22:53 8.64294 76.68817 33792 ft 477 kts 305°
2026-04-27 22:54 8.68168 76.63369 33792 ft 478 kts 305°
2026-04-27 22:54 8.72047 76.57916 33797 ft 478 kts 305°
2026-04-27 22:55 8.75926 76.52458 33806 ft 478 kts 305°
2026-04-27 22:55 8.79807 76.46993 33821 ft 478 kts 305°
2026-04-27 22:56 8.83685 76.41542 33818 ft 477 kts 305°
2026-04-27 22:56 8.87557 76.36091 33816 ft 477 kts 304°
2026-04-27 22:57 8.91415 76.30644 33813 ft 476 kts 304°
2026-04-27 22:57 8.95244 76.25231 33814 ft 476 kts 304°
2026-04-27 22:58 8.99099 76.19792 33804 ft 475 kts 304°
2026-04-27 22:58 9.02949 76.14352 33800 ft 475 kts 304°
2026-04-27 22:59 9.06797 76.08921 33812 ft 474 kts 304°
2026-04-27 22:59 9.10635 76.03503 33815 ft 473 kts 304°
2026-04-27 23:00 9.16382 75.95376 33804 ft 473 kts 304°
2026-04-27 23:00 9.20209 75.89967 33801 ft 473 kts 305°
2026-04-27 23:01 9.24042 75.84550 33800 ft 473 kts 304°
2026-04-27 23:01 9.27842 75.79168 33799 ft 472 kts 304°
2026-04-27 23:02 9.31666 75.73747 33798 ft 473 kts 304°
2026-04-27 23:02 9.35499 75.68329 33797 ft 473 kts 304°
2026-04-27 23:03 9.39337 75.62895 33794 ft 474 kts 304°
2026-04-27 23:03 9.43167 75.57458 33801 ft 474 kts 304°
2026-04-27 23:04 9.47000 75.52022 33807 ft 475 kts 304°
2026-04-27 23:04 9.50833 75.46578 33813 ft 474 kts 304°
2026-04-27 23:05 9.54666 75.41128 33815 ft 474 kts 304°
2026-04-27 23:05 9.58491 75.35698 33826 ft 472 kts 304°
2026-04-27 23:06 9.62303 75.30287 33833 ft 471 kts 304°
2026-04-27 23:06 9.66078 75.24922 33828 ft 470 kts 304°
2026-04-27 23:07 9.69867 75.19533 33826 ft 470 kts 304°
2026-04-27 23:07 9.73656 75.14140 33824 ft 469 kts 304°
2026-04-27 23:08 9.77439 75.08752 33820 ft 469 kts 304°
2026-04-27 23:08 9.81233 75.03359 33798 ft 470 kts 304°
2026-04-27 23:09 9.85036 74.97954 33786 ft 471 kts 303°
2026-04-27 23:09 9.88842 74.92528 33791 ft 472 kts 303°
2026-04-27 23:10 9.92645 74.87095 33796 ft 472 kts 303°
2026-04-27 23:10 9.96446 74.81652 33805 ft 473 kts 303°
2026-04-27 23:11 10.00250 74.76214 33807 ft 473 kts 303°
2026-04-27 23:11 10.04061 74.70773 33807 ft 473 kts 303°
2026-04-27 23:12 10.07850 74.65367 33811 ft 473 kts 303°
2026-04-27 23:12 10.11666 74.59922 33817 ft 473 kts 303°
2026-04-27 23:13 10.15476 74.54470 33817 ft 473 kts 303°
2026-04-27 23:13 10.19277 74.49021 33808 ft 473 kts 303°
2026-04-27 23:14 10.23077 74.43576 33831 ft 472 kts 303°
2026-04-27 23:14 10.26871 74.38141 33830 ft 471 kts 303°
2026-04-27 23:15 10.30025 74.33633 33829 ft 471 kts 303°
2026-04-27 23:15 10.33840 74.28168 33829 ft 471 kts 303°
2026-04-27 23:16 10.37624 74.22735 33831 ft 471 kts 303°
2026-04-27 23:16 10.41388 74.17349 33828 ft 471 kts 303°
2026-04-27 23:17 10.45236 74.11915 33827 ft 470 kts 303°
2026-04-27 23:17 10.49058 74.06516 33810 ft 470 kts 303°
2026-04-27 23:18 10.52843 74.01146 33814 ft 470 kts 303°
2026-04-27 23:18 10.56650 73.95743 33822 ft 470 kts 303°
2026-04-27 23:19 10.60459 73.90346 33816 ft 469 kts 303°
2026-04-27 23:19 10.64262 73.84947 33815 ft 469 kts 303°
2026-04-27 23:20 10.68066 73.79545 33808 ft 469 kts 303°
2026-04-27 23:20 10.71864 73.74149 33807 ft 469 kts 303°
2026-04-27 23:21 10.75672 73.68743 33817 ft 469 kts 303°
2026-04-27 23:21 10.79452 73.63367 33808 ft 470 kts 303°
2026-04-27 23:22 10.83279 73.57932 33812 ft 470 kts 303°
2026-04-27 23:22 10.87053 73.52564 33812 ft 469 kts 303°
2026-04-27 23:23 10.90843 73.47161 33822 ft 468 kts 303°
2026-04-27 23:23 10.94627 73.41767 33825 ft 468 kts 303°
2026-04-27 23:24 10.98415 73.36378 33824 ft 468 kts 303°
2026-04-27 23:24 11.02197 73.30992 33821 ft 467 kts 303°
2026-04-27 23:25 11.05968 73.25606 33819 ft 467 kts 303°
2026-04-27 23:25 11.09737 73.20214 33812 ft 467 kts 303°
2026-04-27 23:26 11.13505 73.14831 33808 ft 467 kts 303°
2026-04-27 23:26 11.17278 73.09445 33797 ft 467 kts 303°
2026-04-27 23:27 11.21054 73.04048 33803 ft 467 kts 303°
2026-04-27 23:27 11.24806 72.98691 33804 ft 467 kts 303°
2026-04-27 23:28 11.28575 72.93301 33805 ft 467 kts 303°
2026-04-27 23:28 11.32340 72.87900 33796 ft 468 kts 303°
2026-04-27 23:29 11.36110 72.82482 33801 ft 468 kts 303°
2026-04-27 23:29 11.39897 72.77064 33802 ft 468 kts 303°
2026-04-27 23:30 11.43671 72.71652 33798 ft 468 kts 303°
2026-04-27 23:30 11.47450 72.66230 33802 ft 468 kts 303°
2026-04-27 23:31 11.51205 72.60851 33803 ft 468 kts 303°
2026-04-27 23:31 11.54976 72.55438 33820 ft 467 kts 302°
2026-04-27 23:32 11.58723 72.50036 33824 ft 466 kts 302°
2026-04-27 23:32 11.62457 72.44645 33823 ft 465 kts 302°
2026-04-27 23:33 11.66197 72.39273 33823 ft 464 kts 302°
2026-04-27 23:33 11.69932 72.33906 33819 ft 463 kts 302°
2026-04-27 23:34 11.73656 72.28544 33812 ft 463 kts 302°
2026-04-27 23:34 11.77381 72.23180 33808 ft 462 kts 302°
2026-04-27 23:35 11.81095 72.17818 33808 ft 462 kts 302°
2026-04-27 23:35 11.84807 72.12465 33811 ft 461 kts 302°
2026-04-27 23:36 11.88513 72.07122 33819 ft 460 kts 303°
2026-04-27 23:36 11.92209 72.01789 33823 ft 459 kts 302°
2026-04-27 23:37 11.95924 71.96488 33814 ft 459 kts 303°
2026-04-27 23:37 11.99732 71.91252 33814 ft 459 kts 304°
2026-04-27 23:38 12.03535 71.86074 33823 ft 458 kts 304°
2026-04-27 23:38 12.07336 71.80865 33824 ft 457 kts 304°
2026-04-27 23:39 12.11106 71.75634 33821 ft 456 kts 304°
2026-04-27 23:39 12.14872 71.70415 33819 ft 456 kts 304°
2026-04-27 23:40 12.18648 71.65210 33822 ft 455 kts 304°
2026-04-27 23:40 12.22411 71.60007 33817 ft 455 kts 304°
2026-04-27 23:41 12.26168 71.54802 33822 ft 454 kts 304°
2026-04-27 23:41 12.29904 71.49638 33824 ft 454 kts 304°
2026-04-27 23:42 12.33657 71.44432 33817 ft 454 kts 304°
2026-04-27 23:42 12.37401 71.39238 33816 ft 454 kts 304°
2026-04-27 23:43 12.41157 71.34041 33818 ft 454 kts 304°
2026-04-27 23:43 12.44902 71.28847 33822 ft 454 kts 304°
2026-04-27 23:44 12.48645 71.23638 33825 ft 454 kts 304°
2026-04-27 23:44 12.52394 71.18433 33822 ft 454 kts 304°
2026-04-27 23:45 12.56147 71.13237 33825 ft 454 kts 304°
2026-04-27 23:45 12.59902 71.08030 33826 ft 454 kts 304°
2026-04-27 23:46 12.63647 71.02825 33828 ft 454 kts 304°
2026-04-27 23:46 12.67391 70.97614 33825 ft 454 kts 304°
2026-04-27 23:47 12.71145 70.92398 33827 ft 454 kts 304°
2026-04-27 23:47 12.74873 70.87212 33828 ft 454 kts 304°
2026-04-27 23:48 12.78614 70.81998 33833 ft 454 kts 304°
2026-04-27 23:48 12.82339 70.76799 33832 ft 453 kts 304°
2026-04-27 23:49 12.86080 70.71592 33830 ft 453 kts 304°
2026-04-27 23:49 12.89800 70.66408 33829 ft 452 kts 304°
2026-04-27 23:50 12.93524 70.61204 33822 ft 452 kts 304°
2026-04-27 23:50 12.97246 70.56009 33824 ft 452 kts 304°
2026-04-27 23:51 13.00971 70.50813 33822 ft 452 kts 304°
2026-04-27 23:51 13.04698 70.45606 33804 ft 453 kts 304°
2026-04-27 23:52 13.08415 70.40389 33814 ft 453 kts 304°
2026-04-27 23:52 13.12123 70.35162 33828 ft 452 kts 304°
2026-04-27 23:53 13.15822 70.29946 33825 ft 452 kts 304°
2026-04-27 23:53 13.19520 70.24727 33825 ft 452 kts 304°
2026-04-27 23:54 13.23193 70.19542 33827 ft 452 kts 304°
2026-04-27 23:54 13.26889 70.14326 33829 ft 452 kts 304°
2026-04-27 23:55 13.30584 70.09111 33828 ft 451 kts 304°
2026-04-27 23:55 13.33653 70.04774 33829 ft 451 kts 304°
2026-04-27 23:56 13.37360 69.99523 33821 ft 451 kts 304°
2026-04-27 23:56 13.41022 69.94344 33835 ft 450 kts 304°
2026-04-27 23:57 13.44698 69.89144 33832 ft 449 kts 303°
2026-04-27 23:57 13.48367 69.83951 33833 ft 449 kts 303°
2026-04-27 23:58 13.52027 69.78759 33838 ft 448 kts 303°
2026-04-27 23:58 13.55677 69.73578 33828 ft 447 kts 303°
2026-04-27 23:59 13.59328 69.68401 33829 ft 447 kts 303°
2026-04-27 23:59 13.62975 69.63215 33826 ft 447 kts 303°
2026-04-28 00:00 13.66619 69.58031 33822 ft 447 kts 303°
2026-04-28 00:00 13.70239 69.52890 33848 ft 446 kts 303°
2026-04-28 00:01 13.73874 69.47718 33839 ft 445 kts 303°
2026-04-28 00:01 13.77500 69.42557 33837 ft 444 kts 303°
2026-04-28 00:02 13.81114 69.37413 33833 ft 443 kts 303°
2026-04-28 00:02 13.84724 69.32272 33827 ft 443 kts 303°
2026-04-28 00:03 13.88332 69.27126 33825 ft 443 kts 303°
2026-04-28 00:03 13.91940 69.21981 33826 ft 443 kts 303°
2026-04-28 00:04 13.97340 69.14251 33826 ft 443 kts 303°
2026-04-28 00:05 14.00952 69.09094 33835 ft 443 kts 302°
2026-04-28 00:05 14.04557 69.03947 33837 ft 443 kts 302°
2026-04-28 00:06 14.08150 68.98807 33840 ft 442 kts 302°
2026-04-28 00:06 14.11754 68.93679 33842 ft 442 kts 303°
2026-04-28 00:07 14.15375 68.88562 33832 ft 442 kts 303°
2026-04-28 00:07 14.18973 68.83483 33828 ft 442 kts 302°
2026-04-28 00:08 14.22594 68.78355 33829 ft 442 kts 302°
2026-04-28 00:08 14.26208 68.73229 33830 ft 442 kts 302°
2026-04-28 00:09 14.29823 68.68087 33829 ft 442 kts 302°
2026-04-28 00:09 14.33439 68.62951 33832 ft 443 kts 302°
2026-04-28 00:10 14.37057 68.57806 33832 ft 443 kts 302°
2026-04-28 00:10 14.40671 68.52660 33835 ft 443 kts 302°
2026-04-28 00:11 14.44296 68.47516 33834 ft 443 kts 302°
2026-04-28 00:11 14.47922 68.42371 33840 ft 443 kts 302°
2026-04-28 00:12 14.51540 68.37213 33836 ft 443 kts 302°
2026-04-28 00:12 14.55157 68.32052 33839 ft 444 kts 302°
2026-04-28 00:13 14.58770 68.26896 33837 ft 443 kts 302°
2026-04-28 00:13 14.62384 68.21743 33848 ft 442 kts 302°
2026-04-28 00:14 14.65980 68.16604 33844 ft 441 kts 302°
2026-04-28 00:14 14.69574 68.11465 33841 ft 441 kts 302°
2026-04-28 00:15 14.73164 68.06330 33840 ft 441 kts 302°
2026-04-28 00:15 14.76750 68.01195 33834 ft 440 kts 302°
2026-04-28 00:16 14.80314 67.96098 33834 ft 440 kts 302°
2026-04-28 00:16 14.83898 67.90967 33830 ft 440 kts 302°
2026-04-28 00:17 14.87486 67.85829 33833 ft 440 kts 301°
2026-04-28 00:17 14.91053 67.80699 33840 ft 439 kts 301°
2026-04-28 00:18 14.94619 67.75573 33842 ft 439 kts 301°
2026-04-28 00:18 14.98190 67.70458 33841 ft 439 kts 301°
2026-04-28 00:19 15.01757 67.65333 33840 ft 439 kts 301°
2026-04-28 00:19 15.05315 67.60207 33840 ft 439 kts 301°
2026-04-28 00:20 15.08873 67.55075 33838 ft 438 kts 301°
2026-04-28 00:20 15.12433 67.49949 33832 ft 439 kts 301°
2026-04-28 00:21 15.16001 67.44808 33840 ft 439 kts 301°
2026-04-28 00:21 15.19538 67.39702 33842 ft 439 kts 301°
2026-04-28 00:22 15.23098 67.34578 33839 ft 438 kts 301°
2026-04-28 00:22 15.26654 67.29454 33837 ft 438 kts 301°
2026-04-28 00:23 15.30202 67.24320 33841 ft 438 kts 301°
2026-04-28 00:23 15.33753 67.19181 33837 ft 438 kts 301°
2026-04-28 00:24 15.37301 67.14055 33838 ft 438 kts 301°
2026-04-28 00:24 15.40849 67.08920 33831 ft 438 kts 301°
2026-04-28 00:25 15.44395 67.03773 33835 ft 438 kts 300°
2026-04-28 00:25 15.47928 66.98637 33842 ft 437 kts 300°
2026-04-28 00:26 15.51441 66.93543 33844 ft 436 kts 300°
2026-04-28 00:26 15.54961 66.88429 33840 ft 436 kts 300°
2026-04-28 00:27 15.58485 66.83307 33832 ft 436 kts 300°
2026-04-28 00:27 15.62041 66.78206 33832 ft 436 kts 301°
2026-04-28 00:28 15.65626 66.73122 33831 ft 436 kts 301°
2026-04-28 00:28 15.69207 66.68025 33834 ft 437 kts 301°
2026-04-28 00:29 15.72778 66.62914 33844 ft 437 kts 301°
2026-04-28 00:29 15.76314 66.57850 33854 ft 435 kts 301°
2026-04-28 00:30 15.79865 66.52764 33854 ft 434 kts 301°
2026-04-28 00:30 15.83411 66.47682 33854 ft 434 kts 301°
2026-04-28 00:31 15.86951 66.42609 33850 ft 433 kts 301°
2026-04-28 00:31 15.90485 66.37536 33847 ft 433 kts 301°
2026-04-28 00:32 15.94017 66.32465 33849 ft 433 kts 301°
2026-04-28 00:32 15.97537 66.27393 33844 ft 432 kts 301°
2026-04-28 00:33 16.01061 66.22323 33846 ft 432 kts 301°
2026-04-28 00:33 16.04581 66.17263 33842 ft 432 kts 301°
2026-04-28 00:34 16.08103 66.12207 33833 ft 432 kts 301°
2026-04-28 00:34 16.11601 66.07170 33832 ft 432 kts 301°
2026-04-28 00:35 16.15110 66.02102 33833 ft 432 kts 301°
2026-04-28 00:35 16.18627 65.97032 33833 ft 432 kts 301°
2026-04-28 00:36 16.22141 65.91964 33829 ft 432 kts 301°
2026-04-28 00:36 16.25650 65.86889 33821 ft 432 kts 301°
2026-04-28 00:37 16.29160 65.81803 33829 ft 432 kts 300°
2026-04-28 00:37 16.32673 65.76726 33829 ft 432 kts 300°
2026-04-28 00:38 16.36189 65.71641 33826 ft 432 kts 300°
2026-04-28 00:38 16.39105 65.67414 33831 ft 432 kts 300°
2026-04-28 00:39 16.42613 65.62332 33829 ft 432 kts 300°
2026-04-28 00:39 16.46123 65.57238 33828 ft 433 kts 300°
2026-04-28 00:40 16.49634 65.52141 33816 ft 433 kts 300°
2026-04-28 00:40 16.53152 65.47024 33828 ft 434 kts 300°
2026-04-28 00:41 16.56665 65.41911 33835 ft 434 kts 300°
2026-04-28 00:41 16.60175 65.36806 33841 ft 433 kts 300°
2026-04-28 00:42 16.63676 65.31705 33845 ft 432 kts 300°
2026-04-28 00:42 16.67173 65.26609 33843 ft 432 kts 300°
2026-04-28 00:43 16.70665 65.21512 33842 ft 432 kts 300°
2026-04-28 00:43 16.74170 65.16406 33837 ft 432 kts 300°
2026-04-28 00:44 16.77646 65.11335 33839 ft 433 kts 300°
2026-04-28 00:44 16.81146 65.06220 33840 ft 433 kts 300°
2026-04-28 00:45 16.84642 65.01111 33857 ft 432 kts 300°
2026-04-28 00:45 16.88129 64.96017 33853 ft 430 kts 300°
2026-04-28 00:46 16.91597 64.90927 33852 ft 430 kts 300°
2026-04-28 00:46 16.95073 64.85834 33851 ft 430 kts 300°
2026-04-28 00:47 16.98544 64.80747 33851 ft 430 kts 300°
2026-04-28 00:47 17.02013 64.75657 33850 ft 430 kts 300°
2026-04-28 00:48 17.05483 64.70567 33850 ft 430 kts 300°
2026-04-28 00:48 17.08947 64.65468 33842 ft 430 kts 300°
2026-04-28 00:49 17.12416 64.60365 33845 ft 430 kts 300°
2026-04-28 00:49 17.15849 64.55307 33849 ft 430 kts 300°
2026-04-28 00:50 17.19330 64.50177 33847 ft 429 kts 300°
2026-04-28 00:50 17.22765 64.45112 33842 ft 429 kts 300°
2026-04-28 00:51 17.26224 64.40017 33839 ft 429 kts 300°
2026-04-28 00:51 17.29681 64.34926 33842 ft 430 kts 300°
2026-04-28 00:52 17.33229 64.29877 33838 ft 431 kts 301°
2026-04-28 00:52 17.36818 64.24848 33844 ft 431 kts 301°
2026-04-28 00:53 17.40391 64.19811 33835 ft 431 kts 301°
2026-04-28 00:53 17.43942 64.14755 33838 ft 431 kts 301°
2026-04-28 00:54 17.47497 64.09694 33834 ft 431 kts 301°
2026-04-28 00:54 17.51050 64.04638 33837 ft 431 kts 301°
2026-04-28 00:55 17.54609 63.99577 33828 ft 431 kts 301°
2026-04-28 00:55 17.58170 63.94506 33824 ft 432 kts 301°
2026-04-28 00:56 17.61736 63.89433 33826 ft 433 kts 301°
2026-04-28 00:56 17.65283 63.84373 33819 ft 433 kts 301°
2026-04-28 00:57 17.68857 63.79267 33822 ft 434 kts 301°
2026-04-28 00:57 17.72431 63.74162 33836 ft 434 kts 301°
2026-04-28 00:58 17.76018 63.69039 33818 ft 435 kts 301°
2026-04-28 00:58 17.79599 63.63904 33818 ft 436 kts 301°
2026-04-28 00:59 17.83187 63.58757 33820 ft 437 kts 301°
2026-04-28 00:59 17.86781 63.53611 33830 ft 437 kts 302°
2026-04-28 01:00 17.90386 63.48444 33805 ft 440 kts 303°
2026-04-28 01:00 17.94008 63.43247 33803 ft 442 kts 303°
2026-04-28 01:01 17.97642 63.38035 33804 ft 443 kts 303°
2026-04-28 01:01 18.01285 63.32798 33807 ft 444 kts 303°
2026-04-28 01:02 18.04929 63.27550 33811 ft 445 kts 303°
2026-04-28 01:02 18.08556 63.22324 33811 ft 445 kts 303°
2026-04-28 01:03 18.12211 63.17061 33821 ft 445 kts 303°
2026-04-28 01:03 18.15870 63.11790 33809 ft 447 kts 303°
2026-04-28 01:04 18.19534 63.06499 33806 ft 448 kts 303°
2026-04-28 01:04 18.23212 63.01183 33808 ft 449 kts 303°
2026-04-28 01:05 18.26893 62.95866 33815 ft 450 kts 303°
2026-04-28 01:05 18.30573 62.90534 33817 ft 450 kts 303°
2026-04-28 01:06 18.34227 62.85231 33821 ft 450 kts 303°
2026-04-28 01:06 18.37923 62.79887 33823 ft 451 kts 304°
2026-04-28 01:07 18.41619 62.74541 33820 ft 451 kts 304°
2026-04-28 01:07 18.45302 62.69183 33821 ft 452 kts 304°
2026-04-28 01:08 18.48967 62.63848 33826 ft 452 kts 304°
2026-04-28 01:08 18.52658 62.58483 33826 ft 452 kts 304°
2026-04-28 01:09 18.56347 62.53123 33826 ft 452 kts 304°
2026-04-28 01:09 18.60028 62.47747 33820 ft 452 kts 303°
2026-04-28 01:10 18.63677 62.42348 33821 ft 452 kts 303°
2026-04-28 01:10 18.67325 62.36936 33818 ft 452 kts 303°
2026-04-28 01:11 18.70986 62.31533 33814 ft 453 kts 304°
2026-04-28 01:11 18.74644 62.26127 33814 ft 453 kts 303°
2026-04-28 01:12 18.78298 62.20713 33812 ft 453 kts 304°
2026-04-28 01:12 18.81950 62.15294 33809 ft 453 kts 303°
2026-04-28 01:13 18.85598 62.09876 33807 ft 453 kts 304°
2026-04-28 01:13 18.91052 62.01784 33813 ft 452 kts 304°
2026-04-28 01:14 18.94693 61.96365 33815 ft 452 kts 304°
2026-04-28 01:14 18.98335 61.90941 33816 ft 452 kts 303°
2026-04-28 01:15 19.01978 61.85514 33818 ft 452 kts 304°
2026-04-28 01:15 19.05626 61.80091 33818 ft 453 kts 304°
2026-04-28 01:16 19.09269 61.74656 33812 ft 453 kts 304°
2026-04-28 01:16 19.12908 61.69219 33821 ft 452 kts 304°
2026-04-28 01:17 19.16536 61.63785 33824 ft 452 kts 304°
2026-04-28 01:17 19.20170 61.58355 33823 ft 452 kts 304°
2026-04-28 01:18 19.23798 61.52913 33821 ft 452 kts 304°
2026-04-28 01:18 19.27423 61.47475 33819 ft 452 kts 304°
2026-04-28 01:19 19.30439 61.42959 33821 ft 452 kts 304°
2026-04-28 01:19 19.34674 61.36604 33826 ft 452 kts 304°
2026-04-28 01:20 19.38295 61.31170 33822 ft 452 kts 304°
2026-04-28 01:20 19.41916 61.25725 33817 ft 452 kts 303°
2026-04-28 01:21 19.45503 61.20312 33815 ft 452 kts 304°
2026-04-28 01:21 19.49125 61.14855 33814 ft 452 kts 304°
2026-04-28 01:22 19.52134 61.10319 33814 ft 452 kts 304°
2026-04-28 01:22 19.55749 61.04852 33814 ft 452 kts 303°
2026-04-28 01:23 19.59369 60.99386 33809 ft 453 kts 303°
2026-04-28 01:23 19.62990 60.93921 33810 ft 453 kts 303°
2026-04-28 01:24 19.66608 60.88449 33817 ft 453 kts 303°
2026-04-28 01:24 19.70216 60.82974 33813 ft 453 kts 303°
2026-04-28 01:25 19.73826 60.77496 33814 ft 453 kts 303°
2026-04-28 01:25 19.77438 60.72013 33802 ft 453 kts 303°
2026-04-28 01:26 19.81054 60.66519 33798 ft 454 kts 303°
2026-04-28 01:26 19.84667 60.61018 33808 ft 454 kts 303°
2026-04-28 01:27 19.88281 60.55520 33809 ft 454 kts 304°
2026-04-28 01:27 19.91901 60.50010 33811 ft 454 kts 303°
2026-04-28 01:28 19.95509 60.44504 33808 ft 454 kts 303°
2026-04-28 01:28 19.99115 60.38991 33803 ft 453 kts 303°
2026-04-28 01:29 20.02701 60.33522 33800 ft 454 kts 304°
2026-04-28 01:29 20.07138 60.28748 33800 ft 457 kts 323°
2026-04-28 01:30 20.12584 60.25234 33795 ft 458 kts 327°
2026-04-28 01:30 20.18054 60.21754 33795 ft 458 kts 327°
2026-04-28 01:31 20.23520 60.18269 33791 ft 458 kts 327°
2026-04-28 01:31 20.28995 60.14790 33789 ft 458 kts 327°
2026-04-28 01:32 20.34474 60.11311 33791 ft 458 kts 327°
2026-04-28 01:32 20.39946 60.07829 33790 ft 458 kts 327°
2026-04-28 01:33 20.45414 60.04342 33782 ft 458 kts 327°
2026-04-28 01:33 20.50883 60.00854 33781 ft 458 kts 327°
2026-04-28 01:34 20.56316 59.97396 33779 ft 458 kts 327°
2026-04-28 01:34 20.61786 59.93907 33782 ft 457 kts 327°
2026-04-28 01:35 20.67240 59.90417 33779 ft 457 kts 327°
2026-04-28 01:35 20.72698 59.86928 33783 ft 457 kts 327°
2026-04-28 01:36 20.78147 59.83438 33780 ft 456 kts 327°
2026-04-28 01:36 20.83598 59.79950 33778 ft 456 kts 327°
2026-04-28 01:37 20.89038 59.76461 33779 ft 456 kts 327°
2026-04-28 01:37 20.94464 59.72972 33778 ft 455 kts 327°
2026-04-28 01:38 20.99898 59.69476 33774 ft 455 kts 327°
2026-04-28 01:38 21.05292 59.66015 33771 ft 455 kts 327°
2026-04-28 01:39 21.10717 59.62528 33777 ft 455 kts 327°
2026-04-28 01:39 21.16143 59.59037 33761 ft 455 kts 327°
2026-04-28 01:40 21.21558 59.55541 33759 ft 455 kts 327°
2026-04-28 01:40 21.26983 59.52039 33754 ft 455 kts 327°
2026-04-28 01:41 21.32412 59.48537 33756 ft 455 kts 327°
2026-04-28 01:41 21.37838 59.45030 33773 ft 454 kts 327°
2026-04-28 01:42 21.43244 59.41528 33778 ft 453 kts 327°
2026-04-28 01:42 21.48643 59.38030 33776 ft 453 kts 327°
2026-04-28 01:43 21.54035 59.34535 33782 ft 452 kts 327°
2026-04-28 01:43 21.59420 59.31038 33790 ft 452 kts 326°
2026-04-28 01:44 21.64798 59.27541 33797 ft 451 kts 327°
2026-04-28 01:44 21.70158 59.24060 33801 ft 450 kts 326°
2026-04-28 01:45 21.75507 59.20579 33795 ft 449 kts 327°
2026-04-28 01:45 21.80858 59.17105 33793 ft 449 kts 327°
2026-04-28 01:46 21.86197 59.13622 33806 ft 448 kts 326°
2026-04-28 01:46 21.91489 59.10173 33805 ft 447 kts 326°
2026-04-28 01:47 21.96810 59.06698 33803 ft 447 kts 326°
2026-04-28 01:47 22.02126 59.03224 33801 ft 446 kts 326°
2026-04-28 01:48 22.07436 58.99754 33806 ft 446 kts 326°
2026-04-28 01:48 22.12743 58.96285 33804 ft 446 kts 326°
2026-04-28 01:49 22.18044 58.92816 33803 ft 445 kts 326°
2026-04-28 01:49 22.23344 58.89335 33809 ft 446 kts 326°
2026-04-28 01:50 22.28607 58.85880 33806 ft 446 kts 326°
2026-04-28 01:50 22.33920 58.82393 33822 ft 446 kts 326°
2026-04-28 01:51 22.39220 58.78911 33820 ft 446 kts 326°
2026-04-28 01:51 22.44521 58.75422 33606 ft 446 kts 326°
2026-04-28 01:52 22.47172 58.73677 33348 ft 446 kts 326°
2026-04-28 01:52 22.49822 58.71928 32613 ft 449 kts 326°
2026-04-28 01:52 22.52517 58.70147 31573 ft 457 kts 326°
2026-04-28 01:52 22.55248 58.68348 30607 ft 462 kts 325°
2026-04-28 01:53 22.57996 58.66538 29955 ft 461 kts 325°
2026-04-28 01:53 22.60725 58.64747 29223 ft 457 kts 325°
2026-04-28 01:53 22.63428 58.62973 28581 ft 452 kts 325°
2026-04-28 01:53 22.66100 58.61212 27944 ft 447 kts 325°
2026-04-28 01:54 22.68746 58.59466 27314 ft 443 kts 326°
2026-04-28 01:54 22.71359 58.57739 26697 ft 438 kts 326°
2026-04-28 01:54 22.73915 58.56041 26094 ft 434 kts 326°
2026-04-28 01:54 22.76484 58.54332 25489 ft 431 kts 326°
2026-04-28 01:55 22.79035 58.52639 24879 ft 428 kts 326°
2026-04-28 01:55 22.81559 58.50970 24368 ft 423 kts 326°
2026-04-28 01:55 22.84056 58.49321 23873 ft 418 kts 326°
2026-04-28 01:55 22.86522 58.47692 23379 ft 413 kts 326°
2026-04-28 01:56 22.88966 58.46078 22837 ft 408 kts 326°
2026-04-28 01:56 22.91373 58.44484 22361 ft 402 kts 326°
2026-04-28 01:56 22.93747 58.42910 21878 ft 397 kts 326°
2026-04-28 01:56 22.96092 58.41354 21415 ft 393 kts 326°
2026-04-28 01:57 22.98418 58.39808 20953 ft 391 kts 326°
2026-04-28 01:57 23.00733 58.38265 20486 ft 389 kts 326°
2026-04-28 01:57 23.03038 58.36727 20018 ft 388 kts 326°
2026-04-28 01:57 23.05306 58.35214 19573 ft 386 kts 326°
2026-04-28 01:58 23.07591 58.33691 19113 ft 385 kts 326°
2026-04-28 01:58 23.09868 58.32177 18666 ft 383 kts 326°
2026-04-28 01:58 23.12136 58.30667 18197 ft 382 kts 326°
2026-04-28 01:58 23.14400 58.29162 17706 ft 380 kts 326°
2026-04-28 01:59 23.16645 58.27666 17249 ft 377 kts 326°
2026-04-28 01:59 23.18881 58.26175 16803 ft 374 kts 326°
2026-04-28 01:59 23.21089 58.24703 16354 ft 371 kts 326°
2026-04-28 01:59 23.23280 58.23248 15916 ft 368 kts 328°
2026-04-28 02:00 23.25618 58.22130 15474 ft 368 kts 341°
2026-04-28 02:00 23.28124 58.21599 15032 ft 368 kts 353°
2026-04-28 02:00 23.30688 58.21691 14551 ft 370 kts
2026-04-28 02:00 23.33236 58.22094 14086 ft 368 kts
2026-04-28 02:01 23.35769 58.22488 13631 ft 367 kts
2026-04-28 02:01 23.38281 58.22870 13256 ft 361 kts
2026-04-28 02:01 23.40723 58.23237 13123 ft 348 kts
2026-04-28 02:01 23.43088 58.23593 12983 ft 337 kts
2026-04-28 02:02 23.45267 58.24334 12856 ft 332 kts 26°
2026-04-28 02:02 23.47025 58.25917 12706 ft 329 kts 49°
2026-04-28 02:02 23.48066 58.28070 12572 ft 316 kts 73°
2026-04-28 02:02 23.48370 58.30370 12378 ft 300 kts 84°
2026-04-28 02:03 23.48547 58.32603 11998 ft 293 kts 84°
2026-04-28 02:03 23.48727 58.34809 11550 ft 289 kts 83°
2026-04-28 02:03 23.48905 58.36973 11148 ft 285 kts 83°
2026-04-28 02:03 23.49081 58.39125 10802 ft 285 kts 83°
2026-04-28 02:04 23.49259 58.41281 10455 ft 286 kts 83°
2026-04-28 02:04 23.49439 58.43433 10161 ft 285 kts 83°
2026-04-28 02:04 23.49615 58.45575 9788 ft 281 kts 84°
2026-04-28 02:04 23.49786 58.47685 9423 ft 280 kts 84°
2026-04-28 02:05 23.49961 58.49797 9065 ft 280 kts 83°
2026-04-28 02:05 23.50137 58.51908 8748 ft 279 kts 83°
2026-04-28 02:05 23.50312 58.54002 8409 ft 278 kts 84°
2026-04-28 02:05 23.50424 58.55391 8177 ft 278 kts 84°
2026-04-28 02:06 23.50590 58.57468 7820 ft 271 kts 83°
2026-04-28 02:06 23.50752 58.59480 7490 ft 262 kts 83°
2026-04-28 02:06 23.50916 58.61422 7177 ft 253 kts 80°
2026-04-28 02:06 23.51472 58.63195 6882 ft 246 kts 53°
2026-04-28 02:07 23.52667 58.64478 6581 ft 240 kts 27°
2026-04-28 02:07 23.54223 58.65042 6259 ft 235 kts
2026-04-28 02:07 23.55843 58.64956 5937 ft 233 kts 352°
2026-04-28 02:07 23.57462 58.64803 5611 ft 233 kts 352°
2026-04-28 02:08 23.59079 58.64649 5304 ft 233 kts 351°
2026-04-28 02:08 23.60580 58.64087 4990 ft 227 kts 323°
2026-04-28 02:08 23.61602 58.62812 4691 ft 224 kts 294°
2026-04-28 02:08 23.61900 58.61170 4408 ft 223 kts 268°
2026-04-28 02:09 23.61773 58.59516 4296 ft 214 kts 266°
2026-04-28 02:09 23.61643 58.57939 4209 ft 205 kts 266°
2026-04-28 02:09 23.61522 58.56422 4110 ft 198 kts 267°
2026-04-28 02:09 23.61407 58.54956 4059 ft 188 kts 268°
2026-04-28 02:10 23.61298 58.53560 3858 ft 182 kts 268°
2026-04-28 02:10 23.61191 58.52205 3644 ft 177 kts 268°
2026-04-28 02:10 23.61087 58.50884 3427 ft 172 kts 269°
2026-04-28 02:10 23.60987 58.49609 3218 ft 166 kts 268°
2026-04-28 02:11 23.60892 58.48418 3025 ft 151 kts 269°
2026-04-28 02:11 23.60805 58.47307 2836 ft 144 kts 268°
2026-04-28 02:11 23.60720 58.46224 2651 ft 142 kts 267°
2026-04-28 02:11 23.60637 58.45157 2475 ft 141 kts 266°
2026-04-28 02:12 23.60552 58.44090 2301 ft 141 kts 266°
2026-04-28 02:12 23.60469 58.43030 2127 ft 140 kts 266°
2026-04-28 02:12 23.60385 58.41974 1947 ft 140 kts 266°
2026-04-28 02:12 23.60302 58.40922 1771 ft 139 kts 265°
2026-04-28 02:13 23.60218 58.39867 1604 ft 140 kts 265°
2026-04-28 02:13 23.60134 58.38806 1449 ft 141 kts 265°
2026-04-28 02:13 23.60050 58.37742 1287 ft 141 kts 263°
2026-04-28 02:13 23.59965 58.36674 1121 ft 142 kts 265°
2026-04-28 02:14 23.59879 58.35601 955 ft 142 kts 264°
2026-04-28 02:14 23.59793 58.34530 790 ft 140 kts 264°
2026-04-28 02:14 23.59710 58.33460 586 ft 142 kts 264°
2026-04-28 02:14 23.59629 58.32397 373 ft 139 kts 264°
2026-04-28 02:15 23.59465 58.30305 91 ft 137 kts 262°
2026-04-28 02:15 23.59385 58.29316 43 ft 111 kts 251°
2026-04-28 02:15 23.59320 58.28689 38 ft 59 kts 264°
2026-04-28 02:16 23.59299 58.28427 39 ft 13 kts 267°
2026-04-28 02:16 23.59293 58.28313 39 ft 16 kts 266°
2026-04-28 02:16 23.59285 58.28182 39 ft 18 kts 266°
2026-04-28 02:16 23.59275 58.28035 40 ft 21 kts 265°
2026-04-28 02:17 23.59261 58.27881 39 ft 20 kts 264°
2026-04-28 02:17 23.59250 58.27751 39 ft 19 kts 265°
2026-04-28 02:17 23.59239 58.27601 41 ft 21 kts 265°
2026-04-28 02:17 23.59228 58.27450 40 ft 21 kts 265°
2026-04-28 02:18 23.59214 58.27289 41 ft 16 kts 264°
2026-04-28 02:18 23.59203 58.27158 43 ft 18 kts 264°
2026-04-28 02:18 23.59192 58.27017 43 ft 19 kts 265°
2026-04-28 02:18 23.59180 58.26876 42 ft 18 kts 264°
2026-04-28 02:19 23.59172 58.26743 43 ft 16 kts 275°
2026-04-28 02:19 23.59241 58.26692 42 ft 15 kts 355°
2026-04-28 02:19 23.59345 58.26684 42 ft 0 kts 357°
2026-04-28 02:19 23.59346 58.26684 42 ft 0 kts 357°
2026-04-28 02:22 23.59346 58.26683 42 ft 0 kts 357°
2026-04-28 02:22 23.59382 58.26681 42 ft 8 kts 355°
2026-04-28 02:22 23.59451 58.26687 42 ft 12 kts 35°
2026-04-28 02:22 23.59474 58.26802 41 ft 20 kts 85°
2026-04-28 02:23 23.59488 58.26965 41 ft 20 kts 86°
2026-04-28 02:23 23.59501 58.27118 41 ft 20 kts 85°
2026-04-28 02:23 23.59512 58.27273 41 ft 21 kts 85°
2026-04-28 02:23 23.59525 58.27429 38 ft 19 kts 85°
2026-04-28 02:24 23.59537 58.27580 40 ft 20 kts 85°
2026-04-28 02:24 23.59547 58.27710 40 ft 18 kts 85°
2026-04-28 02:24 23.59577 58.27829 40 ft 16 kts 41°
2026-04-28 02:24 23.59670 58.27912 37 ft 19 kts 39°
2026-04-28 02:25 23.59750 58.28021 39 ft 19 kts 73°
2026-04-28 02:25 23.59767 58.28170 39 ft 19 kts 84°
2026-04-28 02:25 23.59778 58.28307 39 ft 17 kts 85°
2026-04-28 02:25 23.59788 58.28428 39 ft 15 kts 86°
2026-04-28 02:26 23.59757 58.28509 38 ft 8 kts 119°
2026-04-28 02:26 23.59756 58.28561 38 ft 5 kts 85°
2026-04-28 02:26 23.59759 58.28593 38 ft 4 kts 84°
2026-04-28 02:26 23.59760 58.28606 38 ft 1 kts 84°
2026-04-28 02:27 23.59761 58.28611 38 ft 1 kts 84°
2026-04-28 02:27 23.59761 58.28617 38 ft 0 kts 84°